Theta_e
305 305 306 306 306 306 306 305 305 305 305 305 304 303 302 301 297 295 295 297 296 298 301 298 294 295 296 296 295 295 294 295 295 295 295 295 296 297 300 303 306 307 307 307 307 307 307 307 308 308 308 309 310 310 311 312 312 313 314 315 316 316 315 314 314 314 314 313 313 313 311 309 308 308
304 304 304 303 302 303 302 302 304 303 304 302 303 303 303 302 299 298 295 296 297 298 299 301 300 292 293 293 293 293 293 294 295 295 295 296 296 297 299 301 304 305 306 306 307 308 308 307 308 307 307 308 309 310 309 310 311 313 315 316 317 316 315 315 313 312 313 313 313 310 310 309 309 307
302 302 302 301 300 301 302 303 303 302 302 302 302 302 302 301 301 299 298 294 298 300 298 297 299 296 293 294 294 294 293 294 294 295 295 295 295 295 296 297 300 302 303 304 305 306 307 307 307 307 307 308 308 309 309 309 309 311 313 315 315 314 314 313 312 312 312 312 312 310 310 309 309 308
299 300 301 300 299 299 300 301 301 301 301 302 302 302 302 301 301 300 298 295 295 299 299 300 301 301 300 299 297 298 298 298 294 296 295 295 294 294 295 295 297 299 301 302 303 305 306 306 306 306 307 307 308 308 309 309 310 310 311 312 313 313 312 312 312 311 311 311 310 310 310 309 308 307
296 298 299 300 299 299 300 300 299 298 299 297 298 298 298 298 296 297 295 294 294 298 300 299 300 300 300 298 298 298 298 297 296 294 294 294 294 294 294 294 294 296 299 300 301 301 302 303 304 304 305 305 306 306 307 308 309 309 309 309 310 311 312 312 312 311 310 311 310 310 309 309 308 306
298 297 298 298 298 297 298 298 298 296 295 293 293 293 293 295 295 293 294 294 294 293 297 295 298 298 298 296 298 295 297 297 296 294 294 294 293 293 294 294 294 295 296 298 300 301 302 302 302 303 302 303 304 307 308 306 306 306 306 307 307 308 309 311 311 311 309 310 310 309 309 308 307 307
296 297 296 297 297 298 297 297 296 295 294 294 294 294 295 294 295 294 294 294 293 293 294 297 296 297 298 297 298 297 297 297 297 296 296 295 295 293 293 293 293 295 297 298 298 299 300 301 301 301 301 302 302 303 303 303 304 304 304 305 305 305 306 307 309 309 309 309 310 308 308 308 307 307
295 295 295 296 296 295 295 295 294 293 292 292 292 293 293 293 293 293 293 293 293 294 293 295 295 296 295 297 298 297 296 296 296 295 295 295 294 294 293 292 292 293 296 297 298 299 299 299 299 300 300 300 300 301 301 302 302 302 302 302 303 303 303 304 305 307 307 308 308 309 307 307 306 305
294 294 294 294 294 294 293 292 292 292 292 292 292 292 292 292 293 293 293 293 293 293 292 293 295 295 295 296 296 296 295 296 296 295 293 294 294 294 293 292 292 293 295 296 296 296 298 298 298 299 299 299 299 300 300 300 300 300 301 300 300 302 302 302 303 304 305 305 305 306 307 307 306 305
290 291 292 293 293 293 292 292 292 292 291 292 292 291 292 292 292 292 292 292 292 292 292 292 292 294 294 294 295 296 294 294 294 294 295 294 292 291 291 291 291 290 290 290 291 292 294 296 297 297 297 297 297 298 298 298 299 298 298 299 299 299 300 301 302 303 303 303 304 304 305 305 305 304
287 288 289 290 290 291 291 291 291 291 291 291 291 291 291 292 291 291 291 291 291 291 291 291 292 292 293 293 292 294 294 293 293 292 292 291 293 291 289 290 291 290 289 291 292 292 292 292 292 293 295 295 296 296 296 297 297 296 296 297 298 298 299 300 300 301 302 302 303 303 302 303 304 304
285 286 287 288 288 289 290 290 290 290 290 291 290 291 291 291 291 290 290 290 290 290 290 290 290 291 291 292 293 293 292 291 291 291 289 289 290 291 290 289 289 291 289 288 288 290 291 291 292 293 294 295 295 294 294 294 294 294 295 296 297 297 298 299 299 300 301 301 302 302 302 302 301 303
285 285 285 286 287 287 288 289 289 290 291 291 290 290 291 290 290 290 290 290 290 290 290 289 290 290 290 290 290 290 290 289 289 291 291 290 291 291 291 292 292 290 289 288 288 288 288 287 288 288 288 289 290 290 291 292 291 292 294 294 295 296 296 297 298 299 300 301 301 301 301 301 300 300
285 285 285 286 286 287 287 287 288 290 290 290 290 289 289 289 289 289 289 289 289 289 288 288 289 288 288 289 289 289 289 290 291 291 291 290 291 291 290 290 292 291 288 287 287 288 288 287 287 288 287 288 287 287 287 288 289 290 293 294 294 295 295 296 297 298 300 300 300 300 300 300 300 299
284 284 285 285 285 286 286 287 288 289 290 290 290 291 290 290 289 288 288 288 289 288 288 288 288 288 288 288 289 289 289 289 289 290 290 290 290 289 288 287 290 290 288 286 287 287 289 287 286 287 287 287 286 287 287 290 291 292 293 293 294 294 295 295 296 297 299 299 299 299 299 299 299 298
283 284 284 284 285 285 286 286 286 287 288 289 289 290 290 290 291 291 289 288 288 288 287 287 288 288 287 288 289 289 289 288 289 290 290 290 289 288 288 288 287 289 287 285 285 287 289 286 286 286 287 286 286 286 288 291 292 293 293 293 293 294 294 295 295 296 298 299 299 298 298 298 298 297
283 283 283 284 285 285 285 285 285 285 285 287 288 288 288 289 289 290 291 292 290 289 288 288 288 288 289 288 288 289 289 289 288 289 288 289 289 288 288 288 289 291 289 285 285 285 288 286 284 285 287 287 286 286 290 292 292 293 293 293 293 294 294 295 295 295 297 298 298 298 298 297 297 296
282 282 282 283 283 284 283 283 283 284 285 285 285 286 286 286 287 288 289 289 289 289 289 289 288 289 290 288 289 290 290 288 287 287 287 288 287 287 287 289 289 290 290 286 287 285 287 288 284 284 286 287 285 285 287 290 291 292 293 293 293 294 294 294 294 295 296 297 297 297 297 296 296 296
282 282 282 282 282 283 283 284 285 284 285 285 285 285 285 285 286 286 286 286 286 286 287 288 289 290 290 290 290 290 290 289 289 289 288 288 288 288 289 289 289 289 291 289 286 283 287 288 284 285 287 286 285 285 287 290 290 291 292 292 293 293 293 294 294 294 295 296 297 297 297 296 295 295
281 281 281 281 282 283 283 285 287 287 286 285 284 284 284 285 285 286 287 289 289 288 288 288 288 289 290 291 290 290 289 289 289 289 289 289 288 287 285 285 287 287 290 289 286 284 285 288 286 285 287 286 285 285 283 287 289 290 291 291 292 292 293 293 293 294 295 295 296 296 296 295 294 294
281 280 280 281 282 282 282 285 287 288 287 284 283 283 283 284 284 284 285 288 289 289 290 290 291 291 292 291 292 292 292 291 291 289 287 286 287 285 284 284 286 286 288 286 286 286 284 287 287 285 286 284 284 284 283 283 287 289 290 290 291 292 292 293 293 293 294 295 295 295 295 294 293 292
282 282 282 282 281 282 282 286 287 287 286 284 283 283 283 283 283 284 285 285 286 288 288 288 289 289 289 289 290 290 290 290 290 287 284 285 286 284 284 282 284 286 287 288 287 283 284 286 286 284 284 281 281 282 283 283 283 286 287 289 290 291 292 292 292 293 293 294 294 295 295 294 292 291
282 281 282 283 284 283 284 286 286 287 285 284 284 284 283 282 282 284 285 284 284 285 285 285 286 286 287 287 287 287 288 288 288 287 286 286 285 283 283 284 284 283 284 288 287 283 284 285 285 283 278 279 284 283 283 282 282 281 282 283 285 288 290 291 292 292 292 293 294 294 294 294 292 289
280 280 280 281 283 285 285 286 286 286 286 284 284 283 282 282 281 284 284 284 284 284 284 284 285 285 285 286 286 286 286 286 287 287 287 287 286 284 284 284 284 282 284 287 285 284 285 286 284 284 282 280 280 278 277 279 280 280 280 281 282 285 287 287 288 290 291 292 293 293 294 293 292 287
279 279 280 280 283 284 285 285 285 286 286 285 284 283 282 282 283 284 283 283 284 283 283 284 284 284 285 285 285 285 286 286 286 286 287 287 287 285 283 283 283 284 286 288 289 284 283 285 284 283 280 281 281 281 278 277 279 279 280 280 280 282 283 284 285 285 287 289 291 292 293 293 292 288
279 279 279 280 282 284 284 284 285 285 285 285 283 282 284 285 285 283 283 283 283 283 283 283 283 283 283 284 284 285 285 285 286 286 286 286 287 287 286 285 283 283 285 288 290 286 284 284 285 283 281 280 280 281 279 277 277 279 280 280 280 281 282 282 283 284 285 285 286 289 290 292 292 289
279 280 280 281 282 283 283 284 284 284 284 283 282 284 284 284 284 283 282 282 282 282 282 282 282 282 282 282 283 284 284 285 285 286 286 286 286 286 287 287 286 286 287 288 288 287 286 284 286 284 283 282 279 280 278 278 276 276 278 279 280 280 281 282 282 283 284 285 285 288 290 291 291 290
279 280 280 281 282 283 283 283 283 283 282 281 283 284 284 284 284 282 282 282 282 282 282 281 281 281 282 282 282 283 284 284 285 285 286 285 286 286 286 286 285 286 286 286 287 287 286 285 285 285 284 283 281 279 279 279 276 275 275 278 279 279 280 281 281 282 283 284 284 285 285 286 287 287
279 280 282 282 282 282 282 282 282 281 281 282 283 283 283 282 282 282 282 282 281 280 280 280 281 281 282 283 283 284 284 284 285 285 285 284 285 285 285 285 286 286 286 286 286 286 286 285 284 285 284 283 281 281 280 280 276 274 275 275 274 277 279 280 280 281 282 283 284 284 284 285 285 286
280 281 281 281 281 281 280 279 278 279 279 281 282 282 282 281 281 281 281 280 279 279 279 280 280 281 282 283 284 284 285 284 284 284 283 284 284 284 284 284 284 285 286 286 286 286 286 285 285 284 284 283 282 281 281 280 275 275 275 275 276 276 278 279 280 280 281 282 283 284 284 285 285 284
278 279 279 279 280 280 280 280 280 279 280 280 280 281 281 281 281 280 279 279 279 280 280 280 280 281 282 283 283 283 283 282 283 284 283 283 283 284 284 283 282 284 285 285 285 285 285 285 285 284 282 282 281 281 281 280 278 274 274 275 276 274 275 278 279 280 281 281 282 283 284 283 282 283
278 278 278 278 277 277 277 277 277 278 279 280 280 279 279 279 280 279 280 280 280 280 281 281 281 281 281 281 281 282 282 282 282 284 283 283 283 283 283 281 281 282 283 284 284 285 285 285 285 284 283 282 280 281 280 279 278 276 274 275 275 276 276 276 277 279 281 281 280 279 281 280 280 280
276 276 275 274 274 275 275 276 276 277 277 276 277 277 277 277 277 278 278 278 278 279 280 279 280 280 281 281 282 282 281 281 282 283 283 283 283 283 283 281 281 281 281 282 282 282 282 283 284 284 283 283 282 281 280 277 277 276 274 274 274 274 275 277 277 278 280 279 278 277 276 278 279 279
273 272 272 273 273 274 274 274 274 273 273 273 274 274 276 276 276 277 278 278 279 280 279 280 280 280 280 280 280 280 280 281 281 282 282 281 282 281 281 280 280 281 281 281 281 281 280 280 281 281 280 280 279 280 280 279 276 275 275 274 274 274 275 276 277 278 279 278 276 274 273 274 276 277
271 271 271 271 272 273 272 271 271 271 271 272 272 273 274 275 276 276 277 277 278 278 279 279 279 279 279 279 279 279 279 280 280 281 281 281 281 281 280 280 280 281 281 281 281 280 279 278 277 276 276 276 276 277 279 279 277 274 274 274 274 274 274 275 275 277 277 276 276 273 271 271 272 273
269 269 269 269 269 270 269 269 270 270 270 271 271 272 272 273 274 274 275 276 277 277 278 278 278 278 279 279 279 279 279 280 280 280 280 280 280 280 281 280 280 281 281 280 280 280 278 277 276 275 273 273 273 273 273 279 279 276 274 273 274 273 274 274 275 275 275 275 275 273 270 269 269 271
267 267 267 267 268 268 267 267 268 268 269 269 270 271 271 270 271 272 274 275 276 277 278 277 277 278 279 279 279 279 280 279 279 279 279 280 280 280 280 280 280 280 280 280 280 278 277 276 276 275 274 273 272 271 273 272 276 279 276 274 273 274 273 273 273 273 273 274 273 273 272 270 269 271
265 266 266 266 266 266 266 266 267 267 267 268 269 269 269 270 270 271 272 273 275 276 276 276 277 277 278 278 278 278 279 279 279 279 279 279 279 279 279 279 279 280 279 280 278 277 277 276 275 275 275 273 272 272 271 271 273 276 279 276 273 273 274 273 272 271 271 272 271 271 272 270 270 271
265 265 265 264 264 264 264 265 265 265 266 267 267 267 268 268 268 269 269 270 271 272 272 273 274 275 275 276 278 278 278 278 278 278 279 279 279 279 279 279 279 279 279 278 276 275 276 275 275 275 275 274 273 273 274 271 271 274 278 279 275 273 273 273 272 271 269 268 268 270 271 272 274 276
264 264 264 264 263 264 264 264 264 265 265 266 266 267 267 267 267 267 267 268 269 270 270 270 271 272 273 275 276 277 277 277 278 278 278 279 279 279 279 279 279 279 278 277 274 274 274 275 275 276 276 275 273 273 274 273 274 275 276 277 278 276 274 273 271 269 268 269 270 269 267 269 266 268
263 263 263 263 263 263 263 263 263 264 265 265 266 266 266 266 266 266 267 267 268 267 267 268 268 269 271 273 274 275 275 276 277 278 279 279 279 279 279 279 278 278 277 276 274 273 274 274 276 277 274 274 275 276 274 271 269 270 272 274 277 277 277 276 273 270 269 269 269 267 266 265 265 266
262 262 262 262 262 262 262 262 262 263 264 265 265 265 265 265 265 266 266 266 266 266 266 266 267 268 269 271 273 274 275 275 276 277 278 278 279 279 279 279 278 278 277 276 275 274 273 274 275 275 275 275 274 273 270 270 269 269 270 272 274 277 277 276 275 274 271 270 268 265 265 265 266 264
262 261 261 262 262 262 262 262 262 262 263 264 264 264 264 264 264 264 264 264 265 265 265 265 265 266 267 269 271 273 274 275 276 276 277 278 279 278 278 278 278 277 277 276 274 273 273 274 274 274 274 274 274 273 270 270 269 270 270 270 270 272 274 276 276 275 275 275 274 270 268 266 264 262
260 260 261 261 261 261 261 261 261 262 262 263 263 264 264 264 264 264 264 264 264 264 264 264 264 265 266 267 270 272 273 274 275 275 276 277 278 278 278 277 277 277 276 273 273 273 273 273 274 274 273 273 273 272 270 269 269 269 269 269 270 270 270 272 273 274 275 275 275 274 274 273 272 271
259 259 260 260 261 261 261 261 261 261 262 262 263 263 263 264 264 264 264 264 264 263 263 263 264 264 265 266 268 270 272 274 275 275 276 276 277 277 277 276 276 274 272 272 272 271 272 273 273 274 272 272 272 271 270 270 269 268 268 268 268 269 269 269 268 268 269 269 273 274 274 274 273 273
Wind_Speed
4 4 6 6 6 6 6 6 6 6 5 6 6 5 8 8 10 13 16 14 5 3 7 6 4 5 6 7 7 7 7 9 10 7 8 9 10 13 17 21 22 23 24 24 25 26 27 28 29 28 28 28 30 30 30 30 30 30 29 32 35 36 32 32 29 29 26 24 26 28 27 25 25 28
4 5 5 4 5 5 5 6 6 6 6 6 7 7 7 7 10 11 13 18 1 6 4 7 8 3 6 5 6 5 7 10 12 9 10 10 11 15 17 20 22 22 23 23 24 25 25 25 25 26 27 28 28 29 29 30 31 32 36 38 38 38 33 33 34 32 25 23 27 28 27 27 26 29
3 5 6 4 4 5 7 7 7 6 6 6 6 7 6 7 8 10 12 15 8 6 7 3 5 5 4 4 5 6 7 9 12 11 10 11 14 18 17 21 18 20 22 23 23 24 25 25 25 26 26 28 29 29 30 31 32 31 32 36 37 34 34 36 33 31 29 27 32 30 30 29 30 32
3 4 6 5 4 5 5 6 6 6 6 6 7 7 7 8 7 9 10 11 20 6 7 11 8 10 9 7 8 11 9 11 15 12 11 12 15 12 11 15 17 20 23 23 23 23 24 25 25 26 27 27 28 29 30 31 31 31 31 31 33 35 35 31 29 29 29 31 31 31 31 30 30 31
4 4 5 5 4 4 5 5 5 5 5 5 5 5 6 6 5 6 8 13 17 16 6 8 10 8 10 10 7 11 10 9 9 10 11 11 10 10 10 11 16 19 22 24 23 23 24 25 24 25 26 27 29 28 28 29 29 30 31 30 31 34 34 34 33 31 29 30 33 33 34 29 29 28
5 5 6 6 6 5 6 7 7 5 5 4 5 6 5 7 7 4 7 12 13 19 14 7 8 10 7 13 6 8 11 11 8 10 10 9 10 11 11 10 11 17 20 22 25 24 24 25 25 25 24 24 26 28 29 29 27 30 29 27 26 27 30 30 32 32 30 32 32 33 32 30 32 32
5 6 6 7 6 6 7 8 6 5 6 6 7 9 8 9 9 7 7 9 13 16 17 13 11 11 9 11 13 8 8 11 10 11 11 10 9 9 10 11 10 14 19 20 21 22 24 25 25 25 25 24 24 25 26 28 26 27 28 29 27 26 25 28 29 31 27 28 31 31 31 33 34 33
5 6 7 6 6 6 8 8 8 6 5 6 6 8 7 7 9 7 7 9 11 12 16 17 11 10 11 13 11 8 7 11 11 10 11 10 11 11 9 10 12 13 21 22 24 22 22 24 25 25 26 28 28 27 28 28 27 27 26 25 26 27 26 26 26 26 27 29 35 31 31 33 32 31
5 5 6 7 6 6 8 8 7 7 7 7 7 8 8 7 7 7 7 8 9 11 15 17 15 12 10 12 12 10 10 12 11 10 10 11 13 12 10 9 10 14 19 19 21 22 25 24 24 25 27 26 28 29 30 28 28 25 25 25 25 26 26 26 26 26 26 28 27 30 30 32 33 33
4 5 6 6 6 6 7 9 8 8 8 8 8 8 9 8 7 8 8 8 9 11 13 14 17 16 15 12 11 10 7 11 13 12 11 10 10 9 10 10 9 8 8 8 11 16 21 24 26 25 24 27 28 27 27 29 27 25 24 25 25 25 28 28 27 28 28 26 23 24 28 31 36 36
4 5 5 6 6 7 7 8 9 8 9 8 9 9 9 9 8 9 9 8 9 10 12 13 13 15 15 13 15 11 7 10 11 12 13 14 11 7 9 12 9 8 10 13 18 17 17 18 16 19 24 25 25 25 26 26 28 24 24 25 28 28 29 30 29 28 28 27 28 27 30 31 31 33
4 5 5 6 6 7 7 8 9 8 9 9 10 9 7 9 9 9 9 9 9 10 10 11 13 12 14 14 13 11 9 11 11 8 8 13 14 12 7 9 11 9 8 9 10 13 17 16 21 27 25 25 26 25 23 25 24 24 25 26 27 29 29 30 31 29 28 28 27 28 30 32 28 31
5 5 5 6 7 8 11 14 13 13 12 10 11 12 7 8 9 10 9 10 10 9 10 12 12 13 14 14 14 14 12 12 12 10 7 11 12 12 12 13 10 10 10 9 10 11 10 10 11 11 11 13 17 17 21 19 23 25 26 27 28 28 29 30 31 30 28 28 27 25 26 27 27 28
6 7 6 7 10 13 14 15 16 16 16 15 12 12 11 10 10 10 11 11 10 9 11 12 13 13 14 15 14 14 14 12 11 12 11 12 12 12 13 13 12 7 9 10 11 12 9 10 12 11 11 12 11 10 11 12 16 20 24 25 26 27 28 28 29 29 28 27 26 27 28 27 26 28
8 8 7 7 9 10 10 11 14 15 16 16 16 18 18 15 13 12 13 13 12 10 10 12 13 14 16 17 15 14 14 11 12 11 11 11 11 11 12 15 13 5 9 9 10 12 9 8 11 12 12 12 10 10 13 18 21 24 24 24 24 25 25 27 28 28 27 24 22 22 22 25 26 26
7 8 9 8 7 7 9 9 10 13 15 16 16 18 18 18 19 18 15 14 13 12 12 13 14 15 15 17 15 15 13 13 11 11 11 11 11 13 13 12 13 6 5 7 8 13 9 6 10 12 12 11 10 12 15 21 24 24 23 23 24 25 25 26 26 28 27 24 24 23 23 23 24 30
7 8 8 9 8 6 10 9 8 10 11 14 17 17 18 18 19 17 19 20 16 13 14 15 16 15 16 16 16 15 14 11 14 14 13 11 11 11 13 13 12 14 5 5 10 14 12 7 8 12 13 10 9 13 19 24 24 24 24 24 24 25 25 25 25 27 27 26 29 25 23 25 24 28
7 7 8 9 11 9 6 5 7 9 11 12 13 12 11 12 14 17 19 19 19 18 16 16 18 18 16 18 17 18 16 16 16 15 15 13 14 13 14 14 14 15 9 11 11 13 14 9 6 13 14 8 9 11 14 21 23 25 25 24 24 25 25 24 25 26 28 26 29 23 24 26 23 22
7 7 8 8 10 11 10 7 8 9 11 13 14 14 14 13 13 13 13 10 9 11 12 14 17 18 18 19 19 18 16 16 16 15 16 15 16 17 16 15 16 16 14 13 8 12 14 7 8 13 13 7 9 10 12 21 23 24 25 24 24 25 26 25 25 26 26 27 28 26 23 23 23 27
6 6 7 7 9 10 11 12 16 15 12 12 15 15 15 15 14 14 13 15 15 14 13 13 14 15 17 20 20 19 18 17 16 16 14 14 14 15 14 14 14 14 13 10 10 12 13 12 12 13 11 7 10 10 8 14 22 24 24 23 24 25 26 26 25 26 26 26 26 23 23 23 29 33
5 4 4 6 8 10 10 15 21 23 20 12 14 15 16 16 16 17 15 16 19 19 20 22 24 26 29 31 32 32 32 24 20 17 16 18 16 15 17 17 14 15 12 5 10 12 13 14 11 11 11 7 10 10 9 9 14 21 22 23 24 24 25 25 25 26 26 25 28 26 24 32 31 30
6 7 10 8 6 9 11 20 25 27 20 13 14 15 16 18 18 18 15 14 15 20 22 23 24 26 28 30 32 33 34 33 24 17 18 18 15 17 16 19 14 14 12 13 7 5 13 13 8 9 6 4 6 10 9 9 9 15 17 22 23 24 24 25 24 25 25 26 25 28 28 31 28 19
9 8 8 11 11 12 17 25 25 27 21 15 14 15 16 17 18 16 15 16 18 17 16 15 15 14 15 15 14 17 28 29 25 19 18 16 14 18 18 15 14 16 13 14 5 9 12 12 10 7 3 6 10 7 9 8 8 6 6 7 11 19 23 24 24 24 24 24 25 27 33 33 30 12
12 11 10 10 13 21 23 24 26 26 27 19 15 14 14 15 17 13 16 18 17 18 16 16 16 18 15 15 14 14 14 14 15 16 15 14 14 16 16 16 15 17 14 8 9 9 10 10 10 6 9 9 8 1 1 4 5 5 5 6 7 12 17 19 18 22 22 22 24 25 28 31 30 10
11 12 12 11 15 24 25 26 28 28 28 26 17 13 13 14 20 24 17 17 19 17 17 17 15 14 13 11 11 10 11 11 11 12 13 13 14 15 17 17 16 16 13 13 7 6 11 9 10 5 6 7 9 10 2 3 4 5 5 6 7 6 7 9 7 9 11 17 19 23 28 28 32 16
9 11 11 11 18 27 28 29 29 30 28 29 17 16 24 30 29 20 16 14 13 13 13 13 13 14 13 13 12 12 12 12 11 12 11 12 12 12 13 16 18 17 15 12 14 11 12 12 11 9 7 7 10 9 9 5 3 3 4 5 6 7 7 7 6 8 7 6 7 13 19 29 31 25
11 11 12 13 22 27 28 29 30 29 31 23 16 28 28 28 31 25 13 13 13 12 13 14 14 13 13 13 13 12 12 11 12 11 11 11 12 13 13 15 15 16 16 16 13 13 14 14 11 11 11 9 9 9 7 8 4 2 4 5 7 7 5 5 7 7 6 5 4 13 22 29 31 24
11 11 11 16 28 28 28 29 28 29 26 20 27 28 29 31 27 15 12 11 12 13 14 13 14 13 12 12 13 12 12 13 12 13 12 11 12 12 11 12 14 14 15 15 16 15 13 13 12 11 11 11 10 10 11 6 4 5 6 4 5 5 5 6 7 6 6 4 3 4 6 10 13 14
10 16 24 26 26 26 27 28 26 21 22 26 28 29 29 25 12 11 10 12 13 13 14 13 14 13 13 13 14 14 14 14 14 12 11 12 12 12 13 13 13 13 13 13 14 14 13 12 13 11 10 9 10 10 9 9 5 5 6 5 4 7 7 6 6 6 6 4 5 6 6 6 8 8
23 23 23 25 24 22 20 16 13 13 15 26 27 25 21 12 11 12 12 12 13 13 14 13 14 11 11 10 11 13 14 13 13 12 13 13 13 12 12 12 11 12 13 14 13 12 12 12 12 11 12 10 9 11 9 9 4 4 6 8 5 1 4 6 7 7 7 6 6 7 6 6 7 8
11 15 16 15 19 17 24 23 21 18 17 14 11 10 11 12 10 11 11 13 12 12 11 13 13 14 13 13 13 12 12 13 12 11 12 12 13 13 12 13 13 12 9 10 9 11 10 10 10 11 11 10 8 9 9 7 7 5 5 6 6 7 2 6 6 6 6 6 4 6 7 6 7 8
13 13 13 15 11 10 11 11 9 9 9 10 10 11 11 11 12 15 18 17 12 11 12 12 13 12 13 12 13 12 12 12 12 12 11 12 14 14 13 10 9 9 11 9 8 8 10 10 10 9 10 10 10 8 7 6 8 6 6 6 6 4 2 6 6 6 7 6 4 3 7 9 8 7
11 10 10 10 11 10 11 10 11 10 12 12 13 13 11 10 11 11 11 11 11 13 11 13 13 15 13 13 12 13 13 12 11 11 11 12 13 12 11 13 13 13 12 11 8 7 6 8 9 10 9 9 10 10 7 6 6 5 7 6 6 5 4 4 5 5 5 7 5 4 3 6 9 9
9 9 10 9 9 10 10 12 13 14 13 14 13 12 14 12 10 12 11 11 13 13 13 12 13 16 14 14 13 13 13 13 12 12 13 14 12 11 10 11 12 11 10 10 10 8 6 6 6 5 5 4 2 3 5 7 6 5 5 5 6 6 4 3 3 5 7 6 8 7 6 5 5 7
10 10 10 11 10 9 9 10 12 13 13 13 12 13 13 10 13 13 12 11 13 15 14 13 11 12 14 15 15 14 12 12 12 10 10 10 12 12 13 13 12 11 10 10 9 6 4 5 4 4 2 2 3 2 0 2 4 4 4 3 4 5 4 3 3 4 6 6 8 8 6 6 6 5
10 9 10 10 9 11 10 11 11 11 11 11 12 11 13 14 12 14 14 16 14 13 13 12 13 13 13 12 12 13 15 14 13 12 11 10 11 10 10 11 11 11 10 9 9 5 4 5 4 5 6 4 4 5 2 0 3 6 7 5 4 4 4 4 4 3 6 7 7 10 9 9 7 5
7 8 9 9 9 10 10 11 11 10 10 11 11 11 12 14 15 16 17 20 15 12 13 14 14 13 13 14 14 13 14 15 15 12 10 9 10 10 11 10 9 9 9 9 7 4 3 5 5 5 5 4 4 7 4 3 3 6 7 7 5 5 6 6 6 5 3 6 6 6 9 9 6 5
8 8 8 9 9 9 11 11 11 11 12 12 12 12 12 12 13 15 15 14 13 13 15 13 13 15 13 14 14 13 13 13 13 12 11 11 11 11 11 11 10 9 9 8 5 4 4 4 5 5 5 6 6 5 4 1 0 4 9 7 8 6 6 7 7 6 5 5 6 6 7 9 8 7
7 9 9 9 10 10 11 11 12 12 13 11 12 13 14 13 13 14 14 15 15 14 15 15 14 15 16 15 12 13 13 13 12 14 13 11 11 12 11 10 9 8 8 7 3 2 3 5 5 6 6 6 7 5 2 3 0 2 5 7 8 8 6 7 7 7 7 8 8 8 9 8 11 16
8 7 8 9 10 9 10 9 10 9 10 10 11 11 11 13 14 14 14 15 15 15 14 15 18 18 16 15 14 12 11 14 14 13 13 12 11 11 10 9 9 9 8 6 4 3 4 6 6 5 3 1 2 3 5 6 4 4 4 5 13 10 9 7 8 9 7 6 8 11 10 7 6 3
7 7 7 8 8 9 10 9 9 11 9 11 9 11 12 11 11 12 13 15 15 15 15 14 15 16 15 15 15 15 15 14 13 13 12 12 12 10 11 11 9 8 7 6 4 5 6 2 2 7 7 5 5 6 6 5 5 3 5 4 6 6 6 6 9 10 8 7 8 9 8 8 8 6
7 7 8 8 8 8 7 9 9 9 11 9 10 11 10 9 11 18 16 17 16 15 14 14 13 15 16 15 15 15 14 14 14 12 13 13 12 10 11 9 8 8 6 6 5 3 1 3 5 5 5 5 4 3 3 6 6 5 5 5 6 9 13 15 13 10 10 11 12 10 7 6 5 6
7 7 8 9 8 8 8 8 9 9 9 10 11 9 10 10 11 12 10 11 12 13 13 15 14 14 15 15 14 14 13 14 13 13 14 13 13 11 10 9 8 7 6 4 2 2 2 2 3 4 3 3 1 2 4 5 6 6 6 7 6 6 9 16 19 18 15 15 13 8 4 5 8 6
6 7 8 7 7 8 7 9 9 8 9 9 9 10 10 10 10 10 10 10 11 13 13 13 14 14 14 15 15 14 13 13 13 14 13 13 12 11 10 9 8 7 4 2 3 3 2 2 2 3 3 1 2 5 7 7 6 5 7 7 7 9 9 8 10 13 15 16 17 16 15 9 4 4
5 6 7 7 8 8 8 8 8 9 9 9 9 9 11 10 11 10 10 11 11 13 13 13 14 15 13 14 14 14 13 15 15 13 12 12 11 11 9 8 7 5 5 4 2 2 2 3 3 3 3 4 4 5 6 7 8 7 7 9 9 8 8 8 10 9 8 8 13 16 15 16 16 16
Wind_Direction
270 265 259 254 263 258 255 263 266 269 270 266 262 251 256 268 281 295 299 286 244 263 183 273 280 226 235 240 238 246 243 245 245 244 241 243 244 246 248 254 257 258 258 257 257 259 259 257 258 258 257 257 259 261 263 264 266 265 265 267 266 264 256 249 248 245 237 233 228 225 227 227 219 221
258 274 285 289 294 304 301 277 267 268 263 264 259 258 252 245 258 275 285 290 215 263 201 228 267 245 252 250 263 242 252 245 244 245 240 243 244 242 242 247 252 254 258 259 258 257 257 256 255 256 257 258 258 260 261 262 264 264 264 263 263 261 257 253 247 244 239 228 232 231 225 217 214 220
246 256 261 258 260 257 258 260 257 247 245 247 258 263 265 256 253 266 278 285 288 134 285 241 265 268 252 240 250 254 250 251 242 247 244 245 246 244 246 247 248 255 258 259 259 259 258 257 257 257 258 258 261 261 261 262 261 263 265 266 266 264 262 260 255 246 236 229 230 225 219 217 216 216
274 276 280 277 278 283 280 278 273 269 256 249 247 246 249 255 252 264 271 271 281 264 284 287 268 270 270 254 258 263 258 260 252 257 253 252 252 253 258 257 251 253 256 259 261 261 261 259 258 258 258 257 259 260 262 261 262 263 264 264 265 265 264 260 256 246 236 232 225 221 215 212 215 213
318 301 296 302 308 318 309 303 308 306 302 302 291 286 279 266 254 257 273 280 284 288 243 261 281 276 280 277 247 262 263 261 258 249 255 260 258 256 255 257 252 249 256 258 258 260 261 261 259 258 258 260 261 261 262 263 264 263 264 264 264 264 265 263 259 249 232 223 220 217 216 206 209 203
335 329 319 315 314 309 298 298 295 296 301 301 298 285 282 278 277 250 266 272 279 285 294 257 277 280 267 279 245 235 269 266 254 254 251 251 250 253 256 256 258 250 252 256 260 259 256 257 257 258 260 260 261 262 263 262 262 262 263 263 264 266 267 265 264 258 242 227 223 217 214 206 206 199
336 328 322 316 320 324 314 306 302 302 291 284 279 278 271 272 269 258 240 263 276 283 286 288 284 284 281 270 283 267 256 266 268 270 268 260 255 248 247 255 258 253 252 252 253 255 257 258 258 258 258 260 260 261 261 261 261 262 263 265 266 265 265 265 262 257 248 236 229 219 211 209 207 198
318 311 309 305 307 305 298 297 298 293 281 278 275 274 273 264 271 262 252 243 262 278 288 290 286 282 290 284 277 273 265 273 272 264 268 266 261 261 248 246 255 253 257 256 260 260 262 263 263 261 262 265 264 263 262 261 259 259 260 261 262 263 263 264 263 259 254 239 233 228 218 213 204 198
302 301 297 299 304 304 298 295 294 295 291 284 280 279 279 274 271 269 256 259 255 268 276 285 289 288 275 278 283 278 281 279 272 267 258 263 265 259 254 249 254 256 257 256 258 262 264 262 263 265 266 265 266 265 264 262 261 261 262 262 262 263 262 261 260 257 252 246 236 230 223 212 205 199
278 278 283 285 287 287 286 288 289 289 287 287 281 280 282 279 276 276 272 262 263 264 270 279 290 294 292 287 280 281 263 280 287 283 272 260 257 264 266 253 250 242 242 243 251 254 259 264 263 261 264 267 266 265 264 264 264 263 262 263 263 264 264 263 260 257 255 251 244 227 217 217 213 209
283 279 278 281 281 280 278 281 284 289 287 281 279 275 279 281 280 277 275 273 269 268 274 276 274 283 284 284 289 290 280 260 264 279 290 288 275 238 243 267 254 236 242 242 245 248 250 250 258 265 263 260 261 262 263 262 263 263 263 263 263 263 262 262 262 259 254 248 237 226 217 218 217 208
285 280 282 279 278 274 273 272 278 277 281 284 281 275 270 278 279 275 276 274 269 269 270 271 280 276 283 288 278 282 278 277 270 246 248 269 287 286 252 234 263 262 235 244 250 245 253 258 258 259 261 260 259 260 262 263 263 263 264 264 264 263 262 262 262 260 254 245 236 226 218 214 211 209
305 294 279 277 276 270 270 269 269 269 268 278 285 283 275 270 275 277 273 272 270 268 269 274 270 276 277 276 285 287 280 269 269 278 260 266 269 279 285 276 255 245 250 248 246 250 235 242 247 246 250 253 256 259 260 262 263 260 259 259 260 261 262 262 261 260 254 242 229 217 214 210 204 204
308 300 295 283 274 277 279 279 279 278 275 268 261 273 285 279 274 272 276 274 269 270 270 267 275 277 274 277 276 277 274 280 282 279 278 277 278 279 274 275 269 239 216 243 250 251 237 228 244 245 246 249 242 240 248 245 248 252 253 256 258 258 258 259 260 259 253 242 226 211 208 205 201 199
308 305 300 296 297 293 288 289 288 286 286 286 282 275 268 265 264 275 276 273 277 274 264 272 274 271 276 276 277 278 283 281 281 281 279 277 280 275 283 285 289 215 202 215 251 260 244 208 237 245 241 244 238 230 241 244 248 252 254 255 257 259 258 258 259 258 252 236 219 210 202 197 196 194
299 299 301 297 292 290 290 294 299 296 294 292 288 285 283 278 268 256 255 271 278 274 278 274 268 275 273 278 284 284 284 286 288 281 278 275 271 276 271 270 276 273 174 217 239 263 260 189 228 247 245 240 231 235 236 241 247 250 252 254 255 256 257 257 258 258 252 234 220 212 204 194 189 193
297 298 298 300 292 283 285 292 292 293 296 294 291 286 283 279 276 272 264 257 257 270 269 271 274 267 275 277 275 276 280 286 288 289 284 277 273 269 272 269 277 280 248 221 257 267 269 232 222 250 250 239 231 244 246 244 246 249 250 251 253 254 255 256 257 258 254 239 226 216 201 196 197 195
292 290 295 299 302 302 297 285 289 296 300 301 302 302 296 291 285 282 275 271 265 258 260 265 268 271 271 274 276 279 284 287 284 286 283 285 281 274 269 274 273 274 266 250 268 270 267 254 217 250 258 237 229 239 235 239 244 247 247 249 251 253 254 256 257 257 254 244 230 208 200 201 193 187
280 285 285 287 289 299 306 309 303 304 303 303 303 302 299 295 292 287 287 282 274 266 258 260 263 269 271 272 276 278 279 277 278 277 280 280 279 277 276 271 264 267 260 254 242 259 268 258 234 251 259 243 236 237 236 237 240 243 245 246 249 252 254 255 256 255 254 248 232 208 198 195 190 195
278 278 283 290 297 302 308 313 315 313 311 305 305 306 305 303 299 293 288 287 278 271 269 265 265 267 270 271 273 275 276 276 276 277 276 274 270 271 271 271 274 269 265 240 228 252 260 258 250 259 262 244 251 243 234 236 238 241 244 244 246 250 254 253 256 256 254 250 235 220 208 203 202 200
292 293 292 297 302 308 310 316 319 322 326 316 310 307 306 304 302 300 302 298 291 286 281 279 279 278 281 283 284 284 282 281 281 282 280 276 277 279 279 274 272 270 275 234 213 243 259 256 253 258 262 243 251 254 242 236 236 240 243 244 246 249 251 252 254 256 257 255 247 226 211 207 201 198
325 318 321 320 311 313 314 323 325 323 324 315 311 307 305 304 302 300 305 305 299 294 288 283 278 278 280 280 282 283 285 287 287 284 280 281 285 279 276 280 277 281 276 268 221 233 249 265 256 261 279 289 244 251 251 241 237 238 242 244 246 248 249 252 255 256 258 257 250 232 222 206 200 198
331 328 330 328 330 327 321 321 320 320 320 313 311 310 305 303 300 302 308 305 304 306 305 299 297 286 276 274 271 274 276 274 272 269 268 272 266 273 275 273 279 278 266 268 179 230 260 263 257 241 291 264 260 226 237 234 231 226 225 236 247 248 249 252 256 257 258 257 257 242 217 205 200 194
326 325 323 324 326 325 321 320 319 318 318 317 313 311 306 304 302 310 307 306 306 305 302 298 292 286 280 275 269 267 265 264 261 265 264 263 261 260 266 263 259 263 268 274 140 238 266 264 264 208 217 248 274 289 306 257 230 225 206 224 235 245 249 257 260 262 261 261 258 245 218 205 200 176
320 321 322 322 321 324 323 322 320 318 317 317 313 308 303 302 305 309 306 306 303 298 293 288 288 287 285 278 275 272 269 264 261 259 260 262 260 259 262 265 262 262 260 260 233 220 265 259 260 230 231 227 256 267 208 205 225 212 210 210 233 239 236 251 252 257 263 260 261 246 225 210 201 177
316 316 317 316 322 324 323 322 320 319 319 320 319 311 311 312 312 311 303 294 288 284 287 288 287 290 288 290 284 278 272 271 264 265 260 258 257 256 256 260 264 267 269 271 262 254 259 261 255 250 233 225 253 245 266 242 203 208 202 216 221 233 229 245 246 254 250 249 249 239 221 210 192 176
316 317 315 313 320 321 321 320 320 320 320 321 315 316 315 314 313 309 294 289 288 284 285 287 287 287 286 287 287 282 284 276 271 269 263 260 260 257 253 248 249 255 263 269 268 260 253 257 252 245 248 234 247 253 235 257 253 174 217 213 223 228 235 236 242 250 241 236 244 227 207 198 190 176
312 313 318 319 321 321 320 320 319 320 319 317 317 317 317 316 310 304 300 294 295 295 294 294 293 291 289 287 288 286 284 283 278 276 276 272 269 269 269 259 254 254 258 260 261 258 252 252 254 246 243 246 246 247 258 232 201 172 208 207 229 230 227 225 233 242 236 222 184 192 189 187 186 180
311 315 316 317 319 318 319 320 320 318 317 318 319 319 318 313 307 309 309 311 310 306 303 300 298 296 296 292 291 291 291 291 288 286 281 274 269 261 264 262 258 257 253 251 253 254 252 248 252 253 246 238 242 248 247 255 173 208 191 188 227 221 223 221 230 230 231 219 199 190 194 173 163 163
319 319 319 320 319 319 319 319 317 319 316 317 315 313 311 309 315 318 317 314 312 307 304 302 302 299 297 292 293 293 294 293 290 290 286 286 283 280 277 275 270 255 250 248 243 247 249 247 248 250 252 245 234 248 246 251 217 207 188 202 212 31 222 213 217 220 216 217 210 192 188 181 170 152
317 321 322 322 322 317 316 316 314 309 304 304 303 310 317 320 318 321 322 314 305 301 301 303 302 302 297 296 298 298 301 296 293 290 288 289 289 287 281 278 274 276 264 260 249 249 249 247 245 242 247 250 244 237 245 238 244 182 207 200 179 210 190 199 208 217 213 206 218 189 170 146 142 147
327 325 324 325 320 312 310 310 304 303 306 313 320 323 325 323 319 313 306 304 299 296 297 294 297 297 301 298 300 299 297 296 296 297 294 293 291 289 289 283 284 286 285 273 259 242 239 240 240 239 237 243 247 245 230 223 229 207 203 194 207 221 126 191 200 208 200 186 166 187 161 141 137 137
328 326 328 327 327 322 319 318 321 329 333 329 326 323 326 322 316 315 317 312 307 309 305 306 302 302 302 301 300 300 300 298 297 298 295 292 293 293 290 288 285 286 286 284 275 253 238 242 236 239 239 239 239 242 233 224 222 191 191 193 193 207 201 200 197 194 171 170 162 126 88 126 133 137
335 333 327 323 323 324 330 332 337 338 335 331 328 325 327 322 314 321 322 316 316 315 313 305 309 314 311 308 309 307 303 302 299 299 298 298 294 291 288 288 286 285 279 278 277 265 246 240 248 257 267 280 323 265 236 231 224 191 191 177 180 197 190 168 188 181 174 170 145 127 110 71 82 112
344 337 335 334 335 339 339 338 336 333 329 328 325 324 323 322 327 326 323 323 321 316 310 312 313 313 316 314 312 311 306 303 299 299 295 293 296 294 293 290 289 287 283 280 276 266 234 239 227 245 306 293 278 297 217 243 211 163 135 159 174 173 161 157 146 163 149 128 130 121 91 85 79 62
342 341 338 335 336 335 334 332 330 327 325 324 324 320 325 330 333 331 327 327 320 315 317 319 321 319 316 312 310 311 310 308 305 303 302 300 298 295 292 290 286 284 282 281 279 260 220 226 209 211 229 228 222 257 220 211 216 162 168 167 161 140 124 110 112 98 131 138 141 132 134 126 80 108
336 331 331 330 330 332 328 325 326 326 324 320 320 324 329 328 329 330 326 322 319 320 325 324 320 318 317 318 314 313 315 317 314 310 303 302 300 299 299 295 288 282 281 277 274 249 199 217 212 212 221 228 227 241 244 6 268 196 158 157 149 148 139 130 121 109 64 123 124 128 136 130 109 114
336 331 328 330 330 329 326 322 325 326 326 323 323 325 324 322 321 322 322 320 322 328 330 325 320 322 320 319 318 317 319 316 315 312 310 310 309 306 304 300 294 289 286 283 271 230 198 216 210 215 211 222 238 241 245 273 330 212 193 157 149 143 138 131 130 118 93 59 84 83 107 119 125 120
332 330 329 328 326 324 322 324 326 324 321 322 325 324 323 323 324 324 325 326 327 330 330 326 327 326 323 319 316 319 319 317 316 318 317 315 311 310 307 303 300 294 293 287 273 247 198 218 220 217 212 216 229 247 228 159 185 35 177 162 132 136 152 145 127 112 104 94 79 80 75 93 105 116
331 327 323 322 318 317 316 318 317 314 312 316 318 319 319 323 325 324 324 326 327 329 328 329 328 327 324 321 318 315 313 314 316 317 315 312 310 307 305 303 301 299 295 290 263 240 227 229 221 232 228 250 59 88 88 90 75 58 74 130 150 153 156 143 134 122 88 105 111 104 96 106 67 21
324 318 315 315 311 314 317 314 313 313 311 312 310 317 320 317 318 321 324 325 326 326 326 327 326 324 320 318 320 321 321 319 316 315 312 309 306 305 304 305 301 299 295 284 262 242 243 276 84 95 102 111 122 97 89 82 76 69 88 92 122 99 113 122 138 133 119 120 105 107 103 97 93 99
317 311 311 313 314 312 310 312 313 311 310 311 314 316 315 316 318 324 325 324 324 323 322 320 320 323 320 319 318 318 319 319 319 317 317 316 313 311 310 312 308 305 301 288 276 283 22 93 102 106 122 126 136 110 111 134 121 96 84 74 72 95 92 88 88 99 121 135 133 118 91 65 74 67
316 309 311 314 314 311 312 311 311 311 312 314 313 311 313 314 317 322 322 321 322 324 323 322 319 318 320 317 317 318 318 319 320 320 319 321 324 323 324 321 320 316 309 325 15 59 78 83 110 109 120 135 117 100 117 108 109 111 102 87 67 80 87 93 100 99 81 68 60 68 92 135 140 160
308 308 307 308 307 309 309 311 310 310 309 309 311 311 311 314 316 318 318 319 324 324 322 320 320 317 316 316 314 316 320 322 321 322 323 325 329 329 328 324 322 324 350 33 41 35 39 55 63 114 124 110 91 109 115 109 101 99 101 98 93 93 92 91 93 86 79 76 82 84 87 92 121 156
300 303 306 306 306 307 306 309 309 309 308 306 310 311 313 313 316 317 316 321 321 321 320 320 321 319 314 314 316 317 320 323 324 324 324 327 331 333 333 337 347 8 9 354 23 40 33 56 52 49 50 39 46 92 103 113 113 111 102 102 97 92 86 92 91 84 84 84 82 85 88 88 89 99